Terminal Aerodrome Forecast
Issued by NWS Upton, NY

Home | Current Version | Previous Version | Text Only | Print | Product List | Glossary On
Versions: 1 2 3 4 5 6 7 8 9 10 11 12 13 14 15 16 17 18 19 20 21 22 23 24 25 26
000
FTUS41 KOKX 302300
TAFBDR
TAF
KBDR 302335Z 3100/3124 33016G24KT P6SM FEW050
     FM310100 32021G37KT P6SM SKC
     FM311500 32019G30KT P6SM SKC
     FM311900 31014G24KT P6SM SKC=

USA.gov is the U.S. government's official web portal to all federal, state and local government web resources and services.